Mansfield, OH

4:17 PM EDT on August 25, 2016 (GMT -0400)
Mansfield Lahm Regional

Weather History for KMFD - October, 2011

Change the Weather History Date:

Wednesday, October 12, 2011

  Actual Average Record
Temperature  
Mean Temperature 59 °F 53 °F  
Max Temperature 62 °F 63 °F 90 °F (1928)
Min Temperature 55 °F 43 °F 23 °F (1957)
Degree Days  
Heating Degree Days 6 12  
Month to date heating degree days 79 128  
Since 1 July heating degree days 197 278  
Cooling Degree Days 0 0  
Month to date cooling degree days 2 5  
Year to date cooling degree days 896 630  
Growing Degree Days 8 (Base 50)    
Moisture  
Dew Point 56 °F    
Average Humidity 89    
Maximum Humidity 100    
Minimum Humidity 78    
Precipitation  
Precipitation 0.29 in 0.09 in 1.08 in (1970)
Month to date precipitation 0.63 1.15  
Year to date precipitation 43.06 35.30  
Snow  
Snow 0.00 in 0.00 in - ()
Month to date snowfall 0.0 0.0  
Since 1 July snowfall 0.0 0.0  
Since 1 September snowfall 0.0 0.0  
Snow Depth 0.00 in    
Sea Level Pressure  
Sea Level Pressure 29.88 in    
Wind  
Wind Speed 5 mph (East)    
Max Wind Speed 12 mph    
Max Gust Speed 15 mph    
Visibility 5 miles    
Events Rain    
T = Trace of Precipitation, MM = Missing Value Source: NWS Daily Summary

Daily Weather History Graph

Daily Weather History Graph

Search for Another Location

Airport or City:

Trip Planner

Search our weather history database for the weather conditions in past years. The results will help you decide how hot, cold, wet, or windy it might be!

Date:

Astronomy

Oct. 12, 2011 Rise Set
Actual Time 7:37 AM EDT 6:54 PM EDT
Civil Twilight 7:10 AM EDT 7:22 PM EDT
Nautical Twilight 6:38 AM EDT 7:53 PM EDT
Astronomical Twilight 6:06 AM EDT 8:25 PM EDT
Moon 6:55 PM EDT (10/12) 8:12 AM EDT (10/12)
Length of Visible Light 12h 11m
Length of Day
11h 16m
Full, 100% of the Moon is Illuminated
Oct 12
Full
Oct 19
Last Quarter
Oct 26
New
Nov 2
First Quarter
Nov 10
Full

Hourly Weather History & Observations

Time (EDT) Temp. Dew Point Humidity Pressure Visibility Wind Dir Wind Speed Gust Speed Precip Events Conditions
12:52 AM 55.9 °F 51.1 °F 84% 29.99 in 10.0 mi SSE 3.5 mph - N/A   Clear
1:52 AM 57.9 °F 53.1 °F 84% 29.97 in 10.0 mi SE 5.8 mph - N/A   Clear
2:52 AM 60.1 °F 53.1 °F 78% 29.98 in 10.0 mi SE 8.1 mph - N/A   Clear
3:52 AM 60.1 °F 53.1 °F 78% 29.96 in 10.0 mi SSE 10.4 mph - N/A   Mostly Cloudy
4:52 AM 60.1 °F 53.1 °F 78% 29.96 in 10.0 mi SSE 8.1 mph - N/A   Mostly Cloudy
5:52 AM 57.9 °F 54.0 °F 87% 29.97 in 10.0 mi SSE 8.1 mph - 0.00 in Rain Light Rain
6:52 AM 55.9 °F 55.0 °F 97% 29.97 in 10.0 mi East 3.5 mph - 0.01 in Rain Light Rain
7:52 AM 55.9 °F 55.0 °F 97% 29.97 in 5.0 mi ENE 3.5 mph - 0.01 in Rain Light Rain
8:52 AM 55.9 °F 55.9 °F 100% 29.96 in 3.0 mi Calm Calm - 0.04 in Rain Light Rain
9:00 AM 55.4 °F 55.4 °F 100% 29.97 in 2.0 mi NE 3.5 mph - 0.01 in Rain Light Rain
9:33 AM 55.4 °F 55.4 °F 100% 29.95 in 2.0 mi NNE 4.6 mph - 0.03 in Rain Light Rain
9:45 AM 55.4 °F 55.4 °F 100% 29.95 in 2.5 mi NE 4.6 mph - 0.03 in Rain Light Rain
9:52 AM 55.4 °F 55.4 °F 100% 29.95 in 2.0 mi NNE 3.5 mph - N/A Rain Light Rain
10:00 AM 55.4 °F 55.4 °F 100% 29.95 in 1.8 mi NNE 3.5 mph - 0.01 in Rain Light Rain
10:10 AM 55.4 °F 55.4 °F 100% 29.95 in 1.8 mi NNE 4.6 mph - 0.02 in Rain Light Rain
10:23 AM 55.4 °F 55.4 °F 100% 29.94 in 1.5 mi North 4.6 mph - 0.03 in Rain Light Rain
10:52 AM 55.9 °F 55.9 °F 100% 29.94 in 2.0 mi North 4.6 mph - 0.08 in Rain Light Rain
10:59 AM 55.4 °F 55.4 °F 100% 29.93 in 1.8 mi NNE 5.8 mph - 0.01 in Rain Light Rain
11:07 AM 55.4 °F 55.4 °F 100% 29.93 in 1.8 mi NNE 5.8 mph - 0.02 in Rain Light Rain
11:22 AM 57.2 °F 55.4 °F 94% 29.92 in 2.0 mi NNE 6.9 mph - 0.04 in Rain Light Rain
11:52 AM 57.0 °F 57.0 °F 100% 29.90 in 2.0 mi NNE 5.8 mph - 0.08 in Rain Light Rain
12:25 PM 57.2 °F 57.2 °F 100% 29.89 in 4.0 mi East 6.9 mph - 0.01 in Rain Light Rain
12:52 PM 57.9 °F 57.9 °F 100% 29.88 in 6.0 mi ENE 5.8 mph - 0.02 in Rain Light Rain
12:59 PM 57.2 °F 57.2 °F 100% 29.88 in 7.0 mi ENE 5.8 mph - 0.00 in Rain Light Rain
1:28 PM 57.2 °F 57.2 °F 100% 29.87 in 7.0 mi ENE 10.4 mph - 0.00 in Rain Light Rain
1:35 PM 57.2 °F 55.4 °F 94% 29.87 in 6.0 mi ENE 8.1 mph - 0.00 in Rain Light Rain
1:44 PM 57.2 °F 57.2 °F 100% 29.86 in 4.0 mi East 8.1 mph - 0.01 in Rain Light Rain
1:52 PM 57.2 °F 57.2 °F 100% 29.86 in 3.0 mi East 6.9 mph - N/A Rain Light Rain
2:01 PM 57.2 °F 57.2 °F 100% 29.85 in 3.0 mi East 6.9 mph - 0.00 in Rain Light Rain
2:52 PM 57.0 °F 57.0 °F 100% 29.83 in 4.0 mi East 5.8 mph - 0.00 in   Overcast
3:52 PM 57.9 °F 57.0 °F 97% 29.82 in 7.0 mi East 3.5 mph - N/A   Overcast
4:52 PM 59.0 °F 57.0 °F 93% 29.80 in 10.0 mi SE 3.5 mph - N/A   Overcast
5:20 PM 57.2 °F 57.2 °F 100% 29.80 in 7.0 mi Calm Calm - N/A   Overcast
5:52 PM 57.9 °F 57.0 °F 97% 29.80 in 8.0 mi Calm Calm - N/A   Overcast
6:52 PM 57.9 °F 57.0 °F 97% 29.80 in 7.0 mi Calm Calm - N/A   Overcast
7:52 PM 57.9 °F 57.9 °F 100% 29.79 in 6.0 mi Calm Calm - N/A   Overcast
8:05 PM 57.2 °F 57.2 °F 100% 29.79 in 5.0 mi Calm Calm - N/A   Overcast
8:39 PM 57.2 °F 57.2 °F 100% 29.79 in 6.0 mi SSE 3.5 mph - N/A   Overcast
8:52 PM 57.9 °F 57.9 °F 100% 29.79 in 6.0 mi SSE 3.5 mph - N/A   Overcast
9:07 PM 57.2 °F 57.2 °F 100% 29.79 in 6.0 mi SSE 4.6 mph - N/A   Overcast
9:14 PM 57.2 °F 57.2 °F 100% 29.79 in 5.0 mi South 3.5 mph - N/A   Overcast
9:26 PM 57.2 °F 57.2 °F 100% 29.79 in 5.0 mi South 3.5 mph - N/A   Overcast
9:52 PM 57.9 °F 57.9 °F 100% 29.79 in 5.0 mi SSE 6.9 mph - N/A   Overcast
10:23 PM 57.2 °F 57.2 °F 100% 29.80 in 6.0 mi South 6.9 mph - N/A   Overcast
10:49 PM 57.2 °F 57.2 °F 100% 29.79 in 6.0 mi SSE 5.8 mph - N/A   Overcast
10:52 PM 57.2 °F 57.2 °F 100% 29.79 in 6.0 mi SSE 5.8 mph - N/A   Overcast
11:02 PM 57.2 °F 57.2 °F 100% 29.79 in 6.0 mi SSE 4.6 mph - N/A   Overcast
11:52 PM 57.0 °F 57.0 °F 100% 29.77 in 5.0 mi SSE 5.8 mph - N/A   Overcast